Theta_e
330 326 325 326 325 324 313 308 293 297 298 292 290 291 290 297 298 296 298 299 297 301 303 303 302 303 301 299 299 300 301 300 298 292 292 304 321 322 327 331 335 340 339 340 343 345 346 347 350 351 352 353 352 352 352 352 351 350 349 349 349 349 349 349 349 349 349 349 349 348 349 348 348 348 348 348 348 348 348 348 348 348 347 347 347 347 348 349 348 347 345 344 342 341 340 339 339
325 322 322 322 318 312 303 304 294 290 291 289 289 292 294 296 296 296 297 298 300 302 301 302 301 303 303 303 300 303 301 303 302 303 313 324 323 325 329 331 338 339 339 340 343 345 345 346 348 350 352 353 352 353 352 351 350 350 349 349 349 349 349 350 349 349 349 349 349 349 349 348 348 348 348 348 348 348 348 348 348 347 347 347 347 348 347 347 347 345 344 342 341 339 338 338 337
323 321 323 319 315 311 308 302 293 289 288 284 288 292 295 294 295 297 299 300 301 302 301 301 303 303 303 302 301 300 298 305 310 315 317 323 320 322 329 329 336 340 340 340 343 344 345 344 346 350 352 352 352 352 351 351 351 350 349 349 349 349 349 349 349 348 349 349 349 349 349 349 348 348 348 348 348 347 348 348 347 347 347 347 347 346 347 346 346 344 343 342 340 338 337 336 336
325 324 322 313 305 308 300 297 292 292 290 287 287 292 294 294 297 298 300 301 300 300 302 304 302 304 302 298 301 304 301 304 306 314 314 318 315 318 328 329 332 341 340 341 343 343 344 344 345 350 351 352 352 352 352 351 351 350 349 349 349 348 349 349 348 348 349 349 349 349 348 348 348 348 348 347 347 347 347 347 346 347 346 347 346 346 346 345 344 343 342 340 338 337 336 335 333
320 323 323 313 306 300 301 297 293 289 287 287 287 293 295 297 298 300 301 300 301 300 302 303 300 304 304 304 303 299 300 306 307 314 316 319 324 329 328 328 331 340 340 341 342 343 343 342 344 347 351 352 351 352 352 351 350 350 350 349 349 348 348 349 348 348 349 349 349 349 349 348 348 348 348 347 346 346 346 346 347 346 346 346 345 345 345 344 342 341 340 339 337 335 333 333 331
322 320 321 312 303 305 299 292 289 289 292 292 291 293 295 297 299 300 299 301 302 300 301 301 301 302 302 303 304 299 304 303 307 317 319 319 328 331 328 327 328 339 340 340 341 342 343 341 344 346 351 351 351 352 351 351 350 350 350 349 349 348 348 349 348 349 349 349 349 349 348 348 348 349 348 346 346 346 346 346 346 345 345 344 344 343 343 343 341 340 338 337 335 333 332 330 329
315 312 310 305 305 302 293 289 289 290 292 295 293 295 296 298 299 299 299 302 303 302 303 303 302 301 298 302 305 306 311 310 309 316 320 322 329 329 328 326 326 335 339 339 340 341 341 341 345 349 350 350 351 351 351 351 351 351 350 349 349 348 348 348 348 348 348 349 349 348 349 348 348 348 347 346 346 345 346 346 344 344 343 342 342 341 341 340 339 338 337 336 334 331 329 328 327
318 308 307 297 297 295 292 289 290 290 294 297 296 296 298 299 299 300 299 300 299 300 302 302 302 300 298 302 301 303 314 321 320 322 323 326 328 328 327 325 323 332 336 338 339 339 339 340 344 347 348 350 350 351 351 351 351 350 350 349 349 348 348 348 348 348 348 349 348 348 349 348 348 347 346 346 345 344 344 343 342 341 341 340 339 338 338 338 337 336 336 334 331 329 327 327 325
312 310 306 295 293 295 291 293 293 295 295 297 298 301 305 300 300 299 299 300 300 301 301 302 301 297 297 300 300 304 311 318 322 324 324 325 328 328 328 323 322 331 333 337 339 338 340 340 343 346 347 349 350 351 351 351 351 351 350 349 349 349 349 349 348 349 350 349 348 348 348 348 348 347 346 345 344 343 342 342 341 340 339 338 337 337 336 336 336 334 334 332 329 327 325 326 325
308 303 298 297 296 292 290 290 292 293 296 297 297 299 300 301 300 301 300 299 301 300 302 301 300 300 299 299 299 305 308 315 319 322 324 326 328 328 326 322 322 331 332 333 337 339 339 337 340 342 345 347 349 350 351 351 351 351 350 350 349 349 349 349 349 348 349 348 348 348 348 347 347 346 345 343 342 342 341 341 341 340 339 338 337 335 335 334 333 332 331 330 327 325 324 323 323
302 304 302 292 289 289 290 289 290 292 294 296 299 300 301 300 300 300 300 300 300 301 301 302 301 299 301 299 299 308 313 313 315 318 321 327 327 327 325 325 323 331 331 333 337 338 337 339 336 340 342 344 346 348 349 350 351 350 350 350 349 349 349 350 349 349 349 348 349 348 348 347 347 345 344 343 342 341 341 340 340 339 339 338 336 334 334 334 331 330 330 329 327 324 324 323 322
299 300 299 292 290 291 289 290 292 292 295 295 298 300 300 301 300 299 298 298 298 298 300 302 301 302 298 299 299 308 311 311 310 314 317 326 326 325 325 325 326 330 331 334 336 336 337 338 338 338 338 339 342 345 346 347 348 349 349 349 349 349 349 349 349 349 349 349 349 349 347 347 347 345 343 342 341 341 339 338 337 337 338 337 335 333 333 331 330 329 330 328 325 324 322 322 321
302 299 293 292 290 292 291 291 291 295 291 295 297 300 300 299 299 299 299 298 296 298 300 303 304 301 298 299 302 309 308 313 314 315 320 323 324 323 325 326 327 329 331 335 336 335 336 337 338 338 339 335 336 338 341 342 345 347 347 348 348 348 348 349 349 349 349 348 348 348 347 346 345 345 344 342 341 340 339 338 336 336 336 334 332 331 331 330 329 329 329 326 324 324 323 322 320
303 303 298 292 290 292 292 290 291 293 288 295 297 299 300 299 300 299 298 297 295 300 302 304 303 301 297 299 296 304 304 312 315 317 317 318 322 323 324 325 325 327 330 334 335 336 336 336 337 338 338 338 340 336 335 339 342 345 345 345 345 345 346 347 347 347 347 346 345 345 343 343 343 344 343 343 342 340 339 337 336 334 333 332 332 331 331 330 328 330 328 325 324 323 322 321 319
302 303 296 293 289 289 290 293 291 291 293 294 298 299 298 301 300 299 300 298 297 301 304 305 304 300 294 298 293 304 306 312 314 316 319 321 323 323 324 324 326 324 326 331 334 335 336 336 337 337 337 338 339 339 340 338 336 340 342 342 342 343 343 344 344 343 342 343 343 341 339 338 336 337 338 339 340 338 332 331 335 334 332 332 331 331 330 329 328 329 327 325 324 323 321 319 317
305 301 296 293 289 290 292 292 294 290 293 296 298 298 298 300 300 300 300 300 300 303 303 299 304 300 298 299 299 301 307 312 314 319 319 319 320 321 322 323 325 323 324 327 329 333 336 336 336 337 337 338 338 338 339 339 334 333 337 339 339 340 340 341 340 338 336 336 336 336 332 332 329 332 329 333 332 333 330 326 331 333 333 332 331 330 330 329 328 328 326 325 323 321 319 317 315
304 298 291 289 290 291 292 294 293 290 294 295 299 300 298 297 300 302 302 302 300 300 300 300 301 303 301 303 304 307 310 314 317 317 317 315 317 317 318 319 321 322 325 326 327 328 332 335 335 336 337 337 338 338 339 339 338 330 332 332 334 336 337 337 337 332 328 328 329 327 325 332 330 330 329 327 323 324 322 323 328 332 334 334 333 332 329 329 328 327 326 324 322 320 316 315 313
300 295 289 288 290 292 292 296 297 297 296 296 297 298 296 295 298 300 300 301 299 298 298 299 301 302 303 305 305 310 312 315 316 315 313 313 312 314 315 315 316 323 323 324 326 328 328 332 334 335 336 336 338 340 341 341 340 333 337 336 335 334 332 330 333 336 329 333 325 328 330 327 327 325 324 323 321 321 321 321 325 331 333 332 332 331 329 328 328 326 325 324 322 318 313 300 302
297 294 292 289 290 293 297 298 296 295 295 297 297 296 297 297 298 299 298 295 296 297 299 299 298 299 301 302 305 310 313 313 314 313 312 312 313 315 316 316 317 316 320 322 325 327 328 328 331 334 335 336 337 339 340 339 339 336 337 336 335 330 332 332 334 333 332 331 328 327 325 325 324 323 322 321 321 319 320 321 325 328 330 328 330 331 330 328 327 326 325 324 320 315 303 297 295
299 296 290 291 294 296 299 298 298 298 298 298 297 298 298 298 298 301 298 296 294 295 297 298 297 298 299 301 306 309 311 312 312 311 312 311 313 313 313 314 317 318 321 323 325 327 327 328 328 332 334 335 336 337 337 337 338 336 336 336 334 333 332 332 333 332 331 329 327 325 324 324 323 322 321 319 320 319 319 319 323 324 326 324 325 326 328 328 327 326 324 323 317 306 298 297 295
299 296 291 293 296 296 297 298 300 299 300 299 298 297 297 298 298 299 297 295 295 297 298 299 300 301 300 300 301 306 308 308 310 310 310 310 312 312 313 314 316 318 320 322 322 326 326 328 328 328 331 334 335 335 334 334 335 335 335 335 335 333 331 330 330 330 329 327 325 324 323 323 323 322 321 320 319 318 316 318 320 320 320 317 320 315 316 318 319 315 315 311 303 303 299 297 295
300 297 298 298 297 296 300 299 299 298 298 299 296 297 298 299 299 298 297 294 295 297 300 300 301 302 300 300 302 303 305 306 307 309 309 308 310 312 312 311 315 316 316 319 322 324 326 328 329 329 328 331 334 334 334 332 332 334 334 335 335 333 332 330 328 328 327 326 325 324 323 322 322 321 320 319 318 317 317 316 317 316 315 316 316 314 312 313 311 310 308 305 302 300 299 298 297
295 296 297 298 298 297 299 299 298 297 298 297 296 298 299 298 297 297 297 297 300 302 302 302 302 303 304 302 301 302 302 300 303 306 308 308 307 308 311 311 311 314 315 319 322 323 326 327 328 329 328 327 331 333 333 329 329 333 334 333 333 332 332 330 328 327 326 325 324 323 322 322 321 320 319 318 318 317 317 316 316 315 315 314 314 314 313 312 310 308 305 304 300 298 296 296 297
299 295 296 300 298 298 300 300 296 295 298 298 299 299 298 297 296 299 296 300 301 302 302 302 303 304 302 300 300 302 302 302 302 302 306 308 308 308 308 309 310 310 315 318 321 323 323 326 328 328 329 327 328 330 331 330 329 329 331 330 332 331 330 330 329 328 326 325 324 323 322 322 321 319 318 318 317 316 316 316 316 315 314 314 313 314 313 310 309 307 305 301 300 296 296 296 296
295 293 296 298 298 299 297 295 296 296 297 297 297 297 298 297 299 298 299 301 302 302 302 302 302 302 302 301 301 300 301 302 301 302 303 304 307 309 308 308 307 306 313 316 320 322 323 325 327 328 328 328 328 328 329 329 329 327 328 329 331 327 330 331 330 328 326 325 324 323 322 322 320 319 318 318 316 316 315 316 315 315 314 314 312 311 312 311 308 305 303 303 300 296 296 295 295
295 296 296 295 295 296 296 297 298 298 299 298 296 296 297 297 298 297 300 301 302 302 300 301 301 300 299 300 301 300 300 301 302 301 302 303 305 305 306 307 306 305 309 315 318 321 323 325 326 327 328 328 328 327 328 327 327 327 326 328 330 326 328 329 328 328 328 325 324 323 322 322 321 319 318 317 316 315 315 315 315 314 314 313 312 311 310 311 308 302 300 299 297 296 296 296 295
296 294 294 294 295 295 297 296 298 298 297 297 295 295 296 296 297 294 298 300 301 299 299 298 297 298 299 298 300 299 299 299 300 301 301 304 304 304 305 306 307 308 306 310 316 319 321 323 325 326 328 326 327 327 327 327 325 327 325 325 326 327 327 325 326 327 326 326 324 323 322 321 320 319 318 317 316 315 314 314 314 313 313 312 313 311 308 309 307 302 299 297 296 296 295 295 293
296 295 295 296 295 296 297 296 297 297 295 296 296 295 296 294 296 296 299 302 301 298 299 299 298 298 300 300 299 298 298 298 298 300 301 300 302 304 303 305 307 307 306 306 313 317 318 323 324 325 326 326 325 326 325 326 325 325 325 324 323 324 324 323 323 324 324 325 323 323 322 320 319 318 318 316 316 314 313 314 313 313 312 311 312 312 307 306 304 299 297 296 295 295 295 294 293
296 295 292 294 294 294 297 295 297 296 295 296 295 293 292 293 292 298 300 301 299 298 298 299 299 298 298 298 298 297 297 297 298 300 300 301 301 302 303 303 306 306 307 307 307 311 316 321 323 324 325 324 325 326 326 326 324 322 323 323 323 322 323 323 322 322 323 323 322 322 321 320 318 318 317 317 315 314 312 313 312 312 312 311 310 310 306 302 299 296 296 296 294 293 294 293 294
296 294 293 292 291 290 296 296 296 295 294 295 296 285 286 293 296 298 299 298 297 296 295 295 296 296 296 296 296 297 298 301 301 301 302 302 302 302 301 302 302 302 305 306 307 309 315 317 321 322 322 323 323 325 324 322 322 319 318 321 321 322 320 321 320 320 321 321 321 321 320 319 318 317 316 315 315 313 312 312 312 311 311 309 309 306 304 299 297 296 295 294 296 294 293 293 292
291 293 292 287 286 286 294 296 295 294 295 294 296 287 285 291 294 297 298 296 295 295 296 297 298 298 297 296 296 297 300 301 301 302 302 302 302 302 301 301 301 301 301 303 307 307 311 313 318 321 318 319 319 321 321 321 319 319 317 318 321 319 320 321 318 319 317 319 319 319 319 318 317 316 315 315 314 313 312 311 311 311 309 307 306 302 302 297 296 295 294 294 293 291 292 293 292
291 288 283 285 286 286 292 298 296 294 295 294 294 286 288 292 295 297 297 296 296 296 298 298 298 297 297 297 297 298 300 300 300 301 301 301 301 301 301 301 301 301 301 302 305 307 309 311 312 313 313 315 316 317 316 318 318 316 316 316 319 316 317 320 317 318 318 315 316 318 317 317 317 315 314 314 313 312 312 311 310 308 306 305 304 299 299 297 295 295 295 294 292 291 292 291 290
289 288 283 286 285 287 291 294 296 295 293 294 293 289 287 290 294 296 297 296 296 295 296 297 295 295 296 298 299 298 297 297 298 299 300 300 300 301 301 301 301 301 302 302 303 306 309 310 311 312 312 313 315 314 313 313 316 315 315 316 315 315 317 315 315 315 316 316 314 315 315 316 316 314 313 313 313 311 309 310 308 307 304 303 301 298 297 296 295 296 294 293 293 291 291 290 289
284 287 285 286 287 287 287 292 296 294 294 290 291 289 289 292 291 294 296 296 296 296 297 296 294 294 297 298 297 297 296 296 296 297 298 299 299 300 301 301 301 301 301 302 302 303 307 308 309 310 310 312 312 313 313 313 314 315 313 313 313 314 313 313 313 314 314 313 314 313 314 315 315 313 311 311 310 310 309 309 307 306 303 301 300 297 296 294 294 295 293 291 292 291 290 290 289
283 286 286 287 287 288 289 289 292 295 293 291 289 288 289 291 293 294 296 297 296 295 296 295 294 297 298 297 296 296 295 295 295 296 297 297 298 299 299 299 300 300 301 301 302 302 303 305 306 306 308 311 312 313 312 314 314 314 313 313 313 313 314 312 312 312 311 313 312 311 313 314 314 312 310 309 310 308 307 306 307 304 303 300 299 297 295 293 293 293 294 291 290 290 291 289 290
289 289 288 287 286 287 289 292 295 295 292 291 290 291 292 291 291 293 295 297 294 295 294 294 295 297 296 296 295 295 294 294 296 296 296 296 297 297 298 298 299 299 300 300 301 301 302 302 303 304 304 308 311 311 311 311 311 310 311 311 312 310 312 310 311 310 311 311 309 309 310 311 310 312 309 308 309 307 305 304 305 303 302 300 299 297 295 293 293 292 292 292 290 289 289 289 290
291 289 288 288 288 288 290 292 294 294 292 290 291 291 288 290 291 294 297 297 295 294 294 293 296 295 295 294 294 294 293 294 295 295 295 295 296 296 297 297 297 297 298 298 299 299 300 301 301 301 302 304 308 309 308 306 307 306 306 307 306 307 309 309 310 308 310 308 307 308 308 309 308 308 308 307 307 306 306 303 303 302 301 300 299 299 297 295 294 293 291 290 290 289 288 288 290
289 289 287 288 288 288 291 293 294 296 292 287 287 289 289 290 293 295 297 294 294 293 292 294 294 294 294 293 293 293 293 294 294 294 294 294 294 295 295 296 296 295 296 297 297 298 299 300 300 300 301 301 301 303 305 305 304 304 306 305 305 305 306 306 307 307 306 307 305 305 306 306 307 308 307 305 305 305 304 301 301 302 300 300 299 298 296 295 293 292 291 289 289 290 289 289 291
291 289 287 286 287 289 292 293 293 292 291 286 286 288 289 291 293 296 295 293 294 295 294 293 293 292 292 292 292 292 292 292 292 293 293 293 293 294 294 294 295 295 295 295 296 297 297 298 298 299 299 300 300 300 303 303 303 304 303 301 303 303 303 304 304 304 304 306 305 304 305 304 305 306 305 304 306 304 304 302 300 300 300 299 297 296 295 294 292 292 291 291 288 287 288 289 290
289 289 285 286 289 287 283 288 292 293 291 288 287 287 289 291 294 293 295 295 294 294 295 294 294 292 291 291 291 291 291 291 291 291 291 292 292 293 293 293 293 294 294 294 295 295 296 296 297 297 298 299 299 299 299 300 301 300 301 302 302 303 303 301 302 303 302 303 303 301 301 302 304 304 303 303 303 303 302 302 299 298 299 298 299 297 294 294 292 291 291 291 290 288 288 289 290
287 289 287 286 287 288 287 287 290 290 290 289 288 287 285 290 291 291 292 294 294 293 293 292 292 292 292 292 291 291 290 290 290 290 291 291 291 291 292 292 293 293 293 293 293 294 295 295 296 296 297 297 298 299 299 299 301 301 300 300 298 296 297 298 298 298 299 299 300 301 303 300 301 302 301 302 302 301 301 301 299 297 297 297 297 297 295 295 293 293 292 291 290 290 288 287 289
286 288 291 290 289 288 289 289 287 283 283 287 287 279 278 285 289 290 291 290 290 291 290 290 290 291 290 290 290 290 291 290 290 289 290 290 290 290 291 292 292 292 292 293 293 293 293 294 295 295 296 297 297 298 298 298 298 298 297 297 296 295 295 295 295 295 297 300 301 298 300 300 299 300 299 300 300 300 299 299 299 296 296 297 297 296 296 293 293 292 291 292 290 290 290 287 288
285 286 291 291 289 288 288 286 285 278 278 285 288 280 276 284 288 291 290 288 289 289 289 289 289 289 289 289 289 289 289 289 289 289 289 289 289 289 290 290 291 291 292 292 293 293 293 293 293 294 294 295 296 296 297 298 297 297 297 296 296 295 294 295 295 296 296 296 297 299 299 299 299 300 298 298 298 298 298 298 297 296 295 295 296 296 295 295 294 293 292 291 291 291 288 288 288
285 287 289 289 287 288 287 287 286 282 283 285 288 285 280 279 285 291 289 288 287 287 288 288 288 288 288 288 288 288 288 288 288 288 288 288 288 288 288 289 289 290 291 292 292 292 292 292 292 293 293 294 294 295 295 296 296 296 295 295 295 295 295 294 296 296 296 295 297 297 297 297 298 298 298 297 297 296 296 296 296 296 295 294 295 295 295 295 295 294 293 292 291 290 289 289 288
285 289 290 289 289 287 287 286 283 282 282 278 281 285 280 277 282 289 289 286 286 286 286 286 287 287 287 287 287 287 287 287 286 286 286 287 287 287 288 288 289 289 290 290 291 291 291 292 292 292 292 293 293 293 294 294 294 294 294 294 294 294 294 295 295 295 295 295 294 294 294 296 296 296 297 297 295 296 295 295 294 294 294 294 292 294 293 294 294 294 293 292 291 290 289 288 287
291 290 291 290 289 288 287 283 283 281 280 274 280 284 278 279 283 286 287 286 285 285 286 286 286 286 286 286 286 286 286 286 286 286 286 286 286 287 287 287 288 288 289 290 290 290 290 290 290 291 291 292 292 292 292 292 293 293 292 292 292 292 293 294 294 294 294 293 293 294 294 293 294 294 295 295 295 294 294 294 293 293 293 293 292 291 291 291 291 291 293 293 293 292 291 289 288
291 289 286 284 284 284 283 282 281 279 274 278 283 284 283 276 282 284 285 285 286 286 285 286 286 286 286 285 285 285 285 285 285 285 285 285 286 286 286 286 287 288 289 289 289 289 289 289 289 289 289 291 291 291 291 291 291 291 291 291 291 291 292 292 291 292 292 292 292 292 292 292 293 293 293 294 293 293 293 293 292 292 292 292 292 291 291 291 291 290 291 291 291 292 292 290 289
288 284 282 284 282 279 281 278 279 274 272 277 280 283 285 276 277 284 287 287 289 288 286 285 285 285 285 285 285 285 284 284 284 284 284 284 285 285 286 286 286 286 287 288 288 288 288 288 288 288 288 289 289 290 290 290 290 290 290 290 290 290 291 291 290 290 290 290 291 291 292 292 292 292 292 291 292 292 291 292 291 291 291 291 292 292 291 291 291 289 289 289 290 290 290 290 289
285 283 281 277 275 276 273 276 273 272 274 278 283 282 281 282 284 286 286 286 287 288 288 286 285 284 284 284 284 284 283 282 282 282 283 283 283 284 284 285 285 285 285 286 287 287 288 287 287 286 287 287 288 289 288 288 288 288 289 289 289 290 290 290 290 289 290 290 290 290 291 291 291 291 291 291 292 292 291 292 291 291 291 291 291 290 291 290 289 290 289 288 288 288 289 289 288
284 283 279 276 273 273 268 270 273 273 276 280 282 285 281 283 286 287 285 285 286 287 287 286 285 284 284 284 284 283 283 282 282 282 282 282 283 283 284 284 284 285 285 285 286 286 286 287 286 286 286 287 287 287 287 287 287 287 288 288 289 289 288 289 289 289 289 289 290 289 289 289 289 290 290 290 291 291 292 292 291 291 290 290 290 290 290 290 289 290 290 289 288 289 288 288 288
285 284 285 280 276 272 270 272 272 274 276 280 281 279 276 279 283 284 285 285 285 285 285 285 285 284 283 282 282 282 282 281 281 281 282 282 282 282 283 283 283 283 284 284 285 285 285 285 285 285 285 286 286 287 287 286 286 286 286 287 287 288 287 287 288 288 288 288 288 288 288 289 289 289 289 290 290 290 290 291 291 290 290 289 289 289 291 289 289 289 289 289 289 288 287 287 287
284 285 283 280 280 281 276 276 275 274 276 276 277 279 278 282 285 285 285 285 285 285 284 284 283 283 283 282 282 281 281 281 281 281 281 281 281 281 282 282 282 282 283 283 284 284 284 284 284 284 284 284 285 286 286 285 285 285 285 286 286 287 287 286 286 287 287 288 288 288 287 288 288 288 289 289 289 289 289 289 290 290 290 290 289 288 288 288 287 287 288 287 288 289 287 286 286
283 286 282 283 284 286 280 278 278 277 277 277 278 281 283 284 285 283 284 284 283 283 283 283 282 282 281 281 281 281 281 281 281 281 280 280 280 280 281 281 282 282 282 283 283 283 283 284 283 284 284 284 284 284 284 285 284 284 285 286 286 286 287 286 285 285 286 287 287 287 286 286 287 288 288 288 288 288 288 288 288 288 289 289 288 288 287 286 286 286 287 287 287 287 286 286 286
284 281 282 285 289 286 283 274 273 275 273 274 278 275 277 279 275 282 282 281 281 281 281 281 281 280 280 281 281 281 282 282 282 282 281 280 280 280 280 281 281 281 281 282 283 284 283 284 283 283 284 284 284 284 284 284 284 284 284 285 285 286 286 286 286 285 286 286 286 286 286 286 286 287 287 287 287 286 287 287 286 286 286 287 287 287 287 287 286 287 286 286 286 286 286 286 286
287 283 287 286 277 277 279 275 270 270 269 269 272 279 278 279 281 279 281 280 280 281 280 280 280 280 280 280 280 281 281 282 282 281 281 281 281 281 281 281 281 281 283 283 283 283 283 283 284 283 284 284 284 284 284 285 285 285 285 285 285 285 285 285 285 285 285 285 285 286 286 286 286 286 285 285 285 285 285 285 285 286 286 286 286 286 286 287 286 287 287 287 286 285 285 286 286
287 289 285 285 282 277 275 279 273 275 271 271 270 277 276 281 280 282 282 282 281 281 280 280 281 281 281 280 281 280 281 281 282 282 283 283 283 283 283 283 283 283 283 285 285 285 284 285 284 284 284 284 284 285 285 286 286 286 285 284 284 285 284 284 284 284 284 284 284 285 285 285 285 285 284 284 283 284 285 285 285 285 285 285 286 286 286 286 286 286 286 286 287 285 285 285 286
281 284 280 283 281 282 281 281 278 275 271 273 275 273 278 281 284 282 284 283 282 282 281 281 281 281 281 281 282 282 282 283 284 285 285 285 284 284 284 284 284 283 283 284 284 284 285 284 284 284 284 284 284 284 284 284 285 285 284 283 283 283 283 284 283 283 283 283 283 284 284 284 283 283 284 283 283 284 284 284 284 285 285 285 285 286 286 286 285 285 285 285 285 285 285 285 285
282 282 279 280 278 278 277 276 283 278 279 276 277 276 280 284 286 284 283 283 283 282 282 282 282 282 282 283 283 284 285 285 285 285 284 285 284 284 283 283 283 284 284 283 283 284 284 284 283 283 283 283 284 284 283 283 282 283 282 283 283 282 282 282 281 280 281 282 282 282 283 283 282 283 283 283 282 283 284 284 284 284 284 284 284 285 285 285 285 286 286 287 286 285 285 285 285
Wind_Speed
7 7 6 7 3 2 3 2 2 3 3 1 3 1 1 1 1 3 2 1 2 1 1 1 0 3 0 1 2 2 3 1 5 3 2 2 0 4 6 6 6 10 10 10 10 10 11 15 16 16 16 16 17 16 15 15 15 14 13 14 13 13 13 13 13 13 12 12 11 11 11 10 10 9 9 9 9 8 7 6 7 7 7 9 11 9 11 12 12 12 12 12 12 11 10 9 9
5 5 7 4 3 3 1 1 2 2 4 3 2 1 0 1 4 1 2 3 2 1 1 0 1 0 2 2 2 1 2 8 3 2 1 1 1 3 5 6 9 11 9 9 10 10 10 13 16 17 16 16 17 15 16 15 15 15 15 15 14 14 14 14 13 12 12 11 11 11 11 10 10 9 9 9 8 8 7 7 7 7 9 11 11 10 11 11 13 12 12 11 11 10 9 9 8
4 6 6 6 2 1 2 2 1 1 3 3 2 1 1 5 3 1 4 3 3 2 1 0 0 1 1 4 1 2 1 1 4 1 1 0 4 5 5 5 7 9 10 8 9 9 8 11 16 17 18 17 17 16 16 16 15 15 15 15 15 15 15 15 14 13 12 12 12 11 11 10 10 10 10 9 9 8 8 8 8 8 10 10 10 10 10 12 12 11 11 10 10 9 8 8 7
3 1 0 2 2 3 2 2 3 2 1 2 1 4 2 2 1 4 4 4 4 3 1 0 0 1 1 1 2 0 2 0 1 4 1 3 6 5 7 5 7 8 8 8 9 8 7 11 16 17 17 18 18 16 16 16 16 15 15 15 15 15 15 14 14 13 12 12 12 11 11 11 11 10 10 10 10 9 9 9 8 9 10 10 10 10 11 12 11 11 11 10 8 8 7 7 7
3 2 2 1 2 2 1 0 1 2 1 1 3 2 1 2 1 1 1 3 3 4 1 1 1 1 1 1 1 1 1 1 1 2 2 2 1 7 6 5 5 9 8 9 9 9 7 13 15 15 17 17 19 18 17 16 16 16 15 15 15 14 14 14 13 13 13 12 11 11 11 10 11 12 11 12 11 10 10 10 11 10 9 10 10 9 10 11 10 9 9 7 7 7 7 7 6
3 3 0 3 1 2 3 1 2 1 8 2 1 1 1 1 2 1 3 2 1 2 3 1 1 0 1 1 3 1 2 0 4 1 3 4 5 7 7 5 6 8 8 9 9 8 8 13 14 14 16 17 19 18 16 16 17 16 15 15 15 14 13 13 13 13 13 12 12 11 11 11 12 13 13 12 12 11 11 11 11 10 9 9 9 9 9 10 10 8 8 6 6 6 7 6 6
3 5 1 2 1 2 3 1 3 3 8 5 2 1 1 1 2 3 3 1 0 2 1 1 1 1 1 2 1 0 2 1 2 3 5 5 6 6 6 5 5 8 10 9 8 8 9 13 14 15 15 15 17 17 16 17 17 17 16 16 15 14 14 14 13 13 13 12 11 11 11 11 13 13 13 13 13 13 13 13 11 10 9 7 6 7 7 7 7 6 6 6 6 6 6 5 5
0 2 1 3 1 2 1 1 3 4 4 2 4 3 1 2 2 2 2 1 1 0 1 1 2 2 4 4 1 2 5 3 1 2 4 7 7 6 5 5 5 7 9 8 8 7 11 14 14 14 14 15 15 15 16 16 17 17 17 16 16 14 14 14 14 13 12 11 11 11 11 12 14 14 14 14 13 12 11 11 11 9 9 8 7 4 4 5 5 5 6 6 5 5 5 5 5
2 1 1 4 2 1 2 4 4 4 2 0 1 2 2 3 2 2 0 1 3 0 1 1 2 2 1 5 2 2 2 0 3 4 6 7 8 7 6 5 5 7 8 9 8 7 10 14 14 14 14 14 14 14 16 17 16 17 17 16 15 14 14 14 14 12 10 10 11 11 12 13 14 14 14 13 12 13 12 11 11 10 8 6 6 5 3 3 4 2 3 4 4 4 4 5 5
1 2 1 1 2 2 1 6 3 3 1 2 1 1 3 0 1 1 0 3 1 1 1 3 2 1 1 4 4 1 1 3 3 2 3 6 8 7 6 7 5 8 7 7 7 8 9 15 16 14 13 14 14 14 14 14 14 15 16 14 16 14 13 13 13 13 11 10 11 11 12 14 14 14 14 13 12 11 11 11 10 9 8 6 6 4 3 2 2 3 3 4 3 4 4 4 4
2 2 2 2 4 1 1 5 3 6 3 3 3 2 2 2 2 1 1 2 2 0 1 1 1 2 1 3 3 1 1 4 5 5 4 5 6 6 6 5 5 7 7 6 7 7 9 11 17 16 14 14 13 14 14 14 14 14 15 14 14 13 13 12 12 11 11 11 9 11 13 14 13 14 14 14 12 11 10 9 9 8 7 7 7 5 3 4 3 3 4 5 4 4 4 4 5
2 2 3 1 1 1 3 3 8 7 5 2 1 2 1 3 2 1 2 4 3 3 1 2 1 1 0 1 2 1 3 2 3 3 3 4 5 5 5 4 4 6 7 6 7 7 8 9 11 14 16 14 13 13 13 13 14 13 13 13 13 13 12 12 11 11 10 10 11 11 15 15 14 15 14 13 12 11 9 8 7 7 7 7 7 6 7 6 4 4 6 7 5 4 4 4 5
1 1 3 2 2 1 3 3 5 2 3 1 1 1 0 2 1 0 0 1 3 5 2 1 1 2 2 1 2 1 2 1 2 4 3 4 5 4 4 3 3 6 6 8 8 7 8 8 9 9 11 15 13 13 13 13 13 13 13 13 12 12 12 11 10 10 9 10 11 11 13 14 12 15 14 14 12 11 10 9 8 8 7 7 5 6 6 6 6 6 9 7 6 4 4 4 5
1 0 1 2 0 1 1 3 2 1 2 2 1 1 1 2 1 2 1 3 4 0 3 3 1 1 3 1 3 2 4 3 3 4 3 3 3 3 4 3 3 4 6 8 8 8 8 8 8 8 9 10 9 10 12 14 13 13 14 13 12 11 11 10 10 10 9 10 11 11 12 12 12 12 11 12 12 11 10 9 8 8 7 7 7 7 7 7 6 8 9 7 6 5 5 5 5
1 0 1 0 3 2 3 0 2 1 2 2 3 1 1 2 2 0 0 0 6 3 1 1 2 3 4 2 4 3 6 6 5 3 3 3 4 3 2 4 4 3 5 7 7 8 9 8 8 8 8 8 9 8 7 11 14 13 14 13 12 11 10 10 10 9 10 10 11 11 10 12 11 12 12 11 11 10 9 10 9 9 8 8 8 8 7 8 8 10 8 7 7 7 6 5 6
1 2 2 1 3 1 6 0 0 3 1 2 3 2 1 2 1 0 2 3 2 2 1 3 1 3 3 2 6 5 6 8 5 4 5 4 2 2 2 3 4 2 3 5 7 7 8 9 8 8 8 8 8 7 8 8 11 13 13 13 13 12 11 10 10 9 10 10 10 11 9 9 9 9 13 9 9 11 11 8 9 6 8 9 9 8 8 9 9 10 7 8 8 7 6 6 5
2 4 1 1 4 1 3 0 2 2 3 1 2 0 1 1 2 0 0 0 2 6 2 3 4 1 5 7 9 3 5 5 6 5 4 3 3 2 1 1 3 2 2 4 6 7 7 9 10 8 9 9 8 8 7 8 9 12 11 13 13 13 11 11 11 11 10 10 9 9 8 6 5 5 7 5 9 7 10 10 9 8 6 5 7 7 8 9 9 9 8 8 9 8 7 6 4
3 1 3 1 5 1 4 1 1 2 0 2 1 1 3 1 3 2 3 3 1 5 6 5 4 6 7 8 2 4 5 8 6 8 5 4 3 4 4 3 3 8 6 6 5 6 7 8 10 10 8 10 9 8 7 7 7 9 8 7 8 9 10 11 10 8 8 6 9 7 6 6 5 5 5 6 5 6 8 11 10 9 8 6 6 8 9 9 9 9 9 9 9 9 7 3 2
2 1 2 6 3 6 2 2 4 4 5 3 2 2 4 2 1 2 2 4 4 7 9 2 5 6 9 10 1 6 7 5 7 7 9 8 7 8 8 6 6 4 6 6 7 7 8 7 8 10 10 10 10 9 8 7 8 7 7 7 7 8 8 9 8 8 7 7 6 6 6 6 6 5 6 6 6 9 8 11 11 10 9 8 5 7 8 10 10 10 10 9 10 9 4 3 2
3 3 4 6 5 4 7 5 6 2 2 3 4 3 4 5 2 0 2 7 4 7 9 8 7 9 6 8 3 5 8 7 5 7 8 9 8 9 7 8 8 8 9 9 9 7 6 7 9 10 10 11 11 9 8 7 7 7 7 7 6 6 7 7 7 7 7 7 7 6 6 6 6 6 7 11 9 6 7 10 11 11 10 9 9 6 8 9 10 10 10 10 7 4 3 3 3
2 3 4 4 4 2 5 4 7 7 2 3 2 2 5 4 2 1 5 7 8 8 6 8 15 15 7 8 3 5 5 5 6 6 7 8 8 7 9 11 11 11 10 8 5 8 8 8 7 8 9 10 11 9 9 8 8 8 7 7 7 6 6 6 7 7 7 7 7 7 6 6 6 6 6 6 6 6 5 5 6 6 6 5 8 4 5 5 7 4 4 7 4 5 3 2 3
3 8 6 6 3 4 7 5 8 4 3 3 3 6 6 1 4 2 2 6 11 6 8 9 12 14 8 7 9 3 6 8 9 9 10 11 11 11 8 7 6 5 4 6 10 8 9 9 9 8 8 10 11 10 10 8 9 9 9 8 8 7 7 7 6 6 7 7 7 7 7 7 7 7 6 6 6 6 6 6 6 6 5 5 5 6 6 6 5 5 6 6 4 4 4 4 3
4 3 4 6 6 5 2 4 6 5 6 4 5 3 1 4 7 5 5 11 14 9 9 9 12 12 12 5 5 7 7 7 9 11 12 11 9 9 9 9 9 8 7 9 9 9 10 10 10 9 9 9 11 10 9 8 8 9 9 8 9 8 7 7 7 7 7 7 7 7 8 7 7 7 7 7 7 6 7 6 6 6 6 6 6 7 6 6 6 6 6 5 4 4 2 4 4
6 7 2 6 5 6 6 7 7 5 3 5 5 3 3 3 11 1 3 11 15 13 9 11 12 12 7 6 5 8 9 9 9 10 11 13 14 13 12 11 9 6 6 9 9 10 9 13 12 10 10 9 9 10 10 9 8 9 9 9 9 9 9 8 8 7 7 7 7 7 7 7 7 6 7 7 7 6 7 6 6 6 6 6 5 6 7 5 6 6 5 4 4 4 3 4 4
3 4 2 3 2 4 5 5 6 7 7 5 6 8 9 5 7 5 13 14 16 15 9 10 12 11 10 8 10 9 9 9 8 9 6 7 8 10 7 7 6 5 7 9 9 9 11 12 11 12 11 11 9 9 10 9 9 8 9 9 10 9 9 9 8 7 7 7 7 7 7 7 6 7 7 7 6 7 6 7 6 6 6 6 6 6 7 6 6 6 6 5 5 4 4 4 4
0 2 2 3 4 5 6 7 9 10 9 5 6 13 9 7 6 9 17 17 16 12 7 8 9 10 9 9 11 9 8 8 8 7 9 7 5 5 7 8 6 6 11 10 8 10 9 9 11 13 12 12 10 8 8 8 9 9 9 10 10 9 9 9 8 8 8 7 7 7 8 7 7 7 6 6 8 7 6 6 7 7 7 6 6 7 6 7 7 6 5 5 5 5 5 6 4
2 5 4 4 5 6 3 4 12 12 6 8 5 12 12 3 4 9 4 11 11 6 8 7 4 8 10 7 7 7 6 7 8 7 5 3 3 6 8 5 6 11 8 7 8 9 8 9 10 11 10 9 8 9 8 8 7 8 8 7 8 9 9 8 8 8 7 7 7 8 7 7 7 7 7 7 6 7 6 7 7 6 6 7 7 6 6 7 6 7 7 6 6 6 6 4 6
3 3 6 8 8 9 10 9 16 8 6 6 8 12 12 2 4 11 15 14 9 7 11 10 7 8 10 9 7 5 4 6 5 3 7 6 5 6 7 7 10 8 6 8 8 6 6 10 11 10 10 9 8 8 7 7 7 7 6 6 6 7 7 7 8 8 8 8 8 8 7 7 7 7 8 7 7 7 7 7 6 7 7 6 7 6 6 6 6 6 6 6 5 5 5 5 4
3 3 7 8 6 8 12 9 11 2 5 2 8 1 5 1 5 13 14 12 8 8 11 12 11 9 7 6 5 5 5 8 11 13 11 9 10 10 10 11 9 6 4 2 1 3 6 8 8 9 9 7 8 8 7 6 4 4 5 6 5 5 6 6 7 7 8 8 8 8 8 8 7 8 7 8 7 7 7 7 6 7 6 6 6 6 6 5 5 6 6 5 5 4 5 4 3
5 3 1 9 5 6 17 5 9 6 4 4 7 3 6 10 13 11 13 9 7 8 8 8 7 6 3 3 5 6 13 14 14 11 11 11 11 11 12 12 12 9 6 4 2 4 5 3 4 5 6 7 8 6 5 5 4 4 3 4 4 5 6 6 6 6 7 7 7 7 7 7 7 6 8 7 7 7 7 7 7 7 6 6 6 6 7 6 6 6 6 6 6 6 6 6 6
3 3 2 4 4 6 10 1 4 3 2 5 6 5 7 8 10 9 8 5 4 5 9 10 9 7 7 5 5 9 12 12 12 14 14 14 12 12 13 14 14 12 10 10 4 2 1 1 3 4 4 5 5 5 6 5 4 4 4 4 4 4 5 5 5 5 5 7 6 6 6 7 6 6 6 8 7 7 7 7 7 7 6 6 7 6 7 6 7 7 7 7 5 5 6 6 6
3 3 3 2 6 7 10 11 4 5 0 2 4 3 8 8 10 10 9 7 6 8 12 12 7 7 7 7 11 11 10 11 14 15 15 14 14 12 14 14 14 14 14 11 9 4 5 4 3 4 3 4 4 4 4 4 4 4 4 4 4 3 4 4 4 4 4 4 5 6 5 6 6 6 6 7 7 7 7 7 7 6 6 6 7 6 6 8 7 6 6 7 7 6 6 5 4
2 5 3 4 2 6 5 6 1 3 3 2 4 7 2 5 9 10 11 7 7 8 13 9 6 6 7 11 10 9 11 13 14 15 14 12 12 12 12 13 13 13 13 14 13 9 8 8 6 4 4 4 4 4 4 4 4 4 4 4 3 3 4 4 3 4 4 4 4 6 5 6 6 6 6 6 7 7 6 7 6 6 6 7 7 6 7 7 7 7 6 6 7 7 7 6 4
4 1 6 4 5 3 4 6 6 1 1 3 2 4 6 6 5 7 10 9 9 11 14 7 5 7 10 10 10 11 11 12 14 13 13 12 10 13 12 12 12 13 13 14 13 11 8 7 7 7 6 5 3 4 4 4 4 5 5 5 4 4 3 3 3 4 3 4 4 5 5 5 5 5 5 5 6 6 6 7 5 6 6 6 6 6 6 5 6 7 7 5 6 6 7 8 7
4 3 4 6 3 4 6 4 3 4 1 4 2 6 8 11 10 11 14 14 9 10 9 5 6 9 9 10 10 11 11 13 11 10 11 11 12 12 12 12 13 13 12 13 14 13 12 9 9 10 8 7 6 5 5 5 6 6 6 6 6 5 4 4 3 4 3 3 4 3 4 5 5 5 5 5 6 6 6 6 6 6 6 7 7 6 5 5 5 6 8 7 4 6 8 7 8
7 7 8 6 6 5 6 7 6 4 5 6 6 10 9 5 7 10 11 10 5 7 5 4 7 8 10 10 10 10 10 11 7 9 9 10 11 12 11 11 11 11 12 12 14 15 14 12 10 11 9 6 5 6 6 6 6 6 6 5 7 5 4 5 5 4 4 4 3 4 4 4 4 4 4 4 5 6 6 6 6 6 6 7 7 7 7 7 9 7 7 9 7 4 3 5 5
8 5 5 8 8 6 4 5 6 3 5 5 8 7 4 5 8 11 16 10 7 5 6 5 7 8 9 9 9 10 11 8 5 8 10 11 12 12 11 11 11 13 13 13 15 15 14 12 12 12 10 10 7 6 6 5 5 3 4 5 4 3 4 4 5 3 4 4 4 4 4 4 4 4 4 4 5 6 6 5 6 5 6 7 8 9 9 9 8 7 6 4 7 6 4 3 5
6 6 6 7 2 9 3 5 4 7 2 3 3 6 7 8 10 16 15 7 10 6 6 9 10 9 8 9 9 9 6 5 7 12 13 13 13 13 11 11 12 15 13 13 13 12 12 13 12 11 10 10 9 7 6 6 4 2 4 2 3 4 3 3 2 2 3 3 3 3 3 3 4 4 4 4 4 5 5 5 5 6 6 7 7 6 6 6 6 5 5 5 4 9 7 7 7
5 4 2 4 6 5 4 6 3 3 3 5 4 6 7 10 12 17 10 6 7 8 10 7 9 10 8 8 8 7 9 9 10 11 11 12 12 13 11 11 11 10 11 12 11 13 13 11 10 9 9 9 9 9 7 5 5 6 5 3 4 4 4 3 4 2 3 4 4 2 2 3 3 3 3 3 4 4 5 5 6 6 6 6 6 5 5 7 7 8 8 9 6 4 4 6 10
3 6 6 8 3 3 6 4 7 6 1 5 4 6 7 6 12 8 8 11 9 10 13 12 10 11 10 9 7 8 9 9 12 11 11 11 11 11 11 12 11 10 12 12 12 11 10 10 9 10 9 8 9 9 7 4 4 4 5 5 5 6 4 4 5 5 4 4 4 2 2 2 1 1 1 2 3 2 4 4 4 4 6 5 7 8 6 8 7 6 7 7 6 6 5 8 8
2 3 4 4 4 3 3 4 3 4 4 1 4 6 6 6 11 5 2 5 10 8 10 11 9 9 7 7 10 9 9 8 10 10 11 11 12 13 12 10 10 12 12 12 11 10 8 9 9 9 8 9 8 9 9 8 9 8 7 7 6 6 6 7 5 3 3 2 1 2 1 2 2 1 1 1 2 3 2 2 2 3 4 5 5 6 7 8 8 9 10 8 8 9 8 4 7
2 3 7 6 4 2 2 2 4 6 4 3 5 7 3 4 5 3 4 4 9 4 9 8 7 6 6 10 9 7 8 7 9 10 10 9 9 9 11 11 12 11 12 10 9 10 10 10 11 11 10 10 10 9 8 8 8 8 8 8 8 7 8 8 7 4 2 0 1 1 0 1 2 1 1 1 2 2 2 2 2 2 3 4 4 6 6 5 6 7 7 8 9 8 8 5 6
1 6 4 3 4 2 1 3 5 2 0 2 4 1 8 3 4 8 5 5 5 4 6 6 6 6 7 8 7 7 7 8 8 9 8 10 9 10 11 11 10 11 9 7 8 10 11 10 10 10 9 9 10 10 10 8 9 8 8 7 6 6 5 4 4 5 3 3 1 0 0 1 0 1 0 1 1 1 2 2 1 2 3 4 4 4 5 6 6 7 6 7 8 8 5 8 9
5 2 4 3 2 1 0 1 1 5 2 4 2 5 7 2 7 13 5 6 3 4 5 5 6 6 7 7 7 7 7 7 7 8 9 8 9 10 10 9 9 9 6 7 9 9 11 11 11 11 10 10 10 10 11 9 8 8 8 7 7 7 5 4 5 5 6 5 1 1 0 1 1 0 1 0 1 1 2 3 2 2 2 3 4 5 6 6 5 4 5 7 7 7 8 9 8
4 2 4 2 0 1 0 0 2 3 1 7 4 2 1 4 8 2 8 4 1 3 3 3 4 5 5 7 7 7 7 8 7 7 9 9 9 9 8 10 7 9 9 10 9 9 9 9 10 11 13 12 12 12 11 11 9 8 8 7 8 6 5 5 4 6 7 7 7 7 2 1 1 1 0 1 1 1 1 3 3 3 3 3 3 4 4 5 6 6 6 6 7 7 7 7 6
2 2 0 2 1 1 1 1 1 2 1 6 6 4 4 7 6 2 2 2 6 4 4 4 4 4 5 6 7 7 6 7 7 7 7 8 8 8 7 6 11 10 8 8 9 9 10 10 11 13 13 10 10 12 12 12 11 10 10 9 9 8 7 7 7 8 7 6 7 7 7 7 5 2 2 1 1 1 1 1 2 3 4 4 2 4 4 4 4 5 6 7 7 9 7 7 9
3 4 2 5 5 2 1 2 2 2 1 7 8 6 6 4 4 4 8 8 6 7 3 4 5 5 6 6 7 5 5 7 6 6 6 6 5 6 6 10 8 10 10 11 11 11 11 11 11 13 11 10 11 11 11 11 10 10 10 10 10 10 9 8 9 9 8 9 8 7 7 6 6 6 6 4 3 2 2 1 3 4 3 3 3 3 4 4 5 5 5 5 6 8 8 8 8
3 1 2 5 5 4 2 2 3 1 5 6 4 6 8 6 5 3 4 3 12 16 14 11 7 6 5 5 5 5 5 6 5 5 6 6 6 8 8 10 10 10 11 12 10 10 11 10 11 13 13 12 11 11 11 11 10 11 10 11 11 10 9 8 9 9 8 8 7 8 8 8 8 6 6 6 6 6 4 3 2 2 3 3 4 4 4 4 4 4 4 5 5 6 6 7 7
4 4 5 3 4 4 2 1 1 5 6 2 0 4 2 8 8 2 4 8 4 3 7 11 11 8 6 5 5 4 4 5 5 5 5 6 7 8 9 8 9 11 10 10 10 9 9 10 11 12 13 12 12 11 11 10 11 11 11 11 10 9 10 10 9 9 8 8 7 8 9 8 8 9 9 8 8 8 6 5 4 4 4 4 4 3 4 4 4 4 4 5 5 5 7 8 8
6 5 5 5 1 1 3 5 2 3 5 6 3 1 2 3 4 5 5 6 5 11 11 10 10 9 6 5 4 3 4 5 4 4 5 6 6 6 7 7 7 8 9 9 9 9 8 8 9 11 11 11 9 10 10 11 11 10 10 10 9 9 9 9 9 9 9 8 8 8 8 8 8 8 8 8 7 7 8 6 4 4 3 4 4 4 4 4 4 4 4 5 6 7 6 7 8
8 3 9 8 6 2 3 3 4 5 6 2 2 2 5 3 2 2 6 5 9 10 11 9 8 7 5 4 4 4 4 4 4 4 4 5 6 5 6 6 6 7 7 8 8 8 8 9 9 10 10 9 9 8 7 10 9 10 10 9 9 8 8 8 8 7 8 9 8 8 8 8 8 8 8 8 8 8 8 9 8 5 5 4 4 4 4 4 4 4 4 5 5 5 6 6 6
2 3 4 4 5 4 4 3 1 3 4 5 2 5 3 3 2 3 3 7 9 8 9 8 8 6 5 5 4 3 3 3 3 3 4 4 4 4 5 6 6 6 6 6 7 7 8 7 6 6 6 6 7 7 7 7 7 6 8 10 9 9 8 8 7 7 7 7 7 8 8 8 8 8 8 9 9 8 8 8 8 8 7 6 5 5 4 4 5 4 5 5 6 4 5 6 7
2 4 3 5 3 2 2 4 2 1 0 9 1 5 1 2 1 3 2 7 6 6 6 7 6 4 4 4 3 2 1 2 2 3 3 4 4 4 5 5 5 6 6 7 6 5 5 5 5 6 5 5 7 6 5 5 5 6 7 8 8 8 8 8 8 9 8 7 7 7 7 7 7 8 9 8 10 9 8 8 7 8 8 7 6 6 5 5 4 4 5 5 6 6 5 7 7
5 2 6 1 2 3 2 4 2 2 6 6 1 4 3 1 6 3 1 6 3 4 4 5 4 3 4 3 2 2 2 1 1 2 3 3 4 4 5 4 4 5 5 5 6 5 6 6 7 8 9 9 7 5 5 4 5 6 7 7 7 7 7 6 5 5 5 6 6 7 7 8 8 8 7 7 7 9 9 9 8 8 8 7 7 6 6 6 5 6 5 5 6 5 5 6 6
3 3 1 0 4 2 2 4 3 2 4 5 3 7 6 7 6 4 5 6 6 5 4 5 4 3 4 3 3 2 0 1 3 3 3 3 4 4 4 4 4 4 4 4 5 5 6 5 6 5 6 6 6 6 5 5 5 5 5 6 6 6 6 5 4 3 3 5 6 6 6 5 6 7 8 9 9 9 8 9 7 8 8 8 7 7 6 7 6 6 6 6 6 5 5 7 7
2 1 1 1 2 3 2 5 4 3 6 4 4 4 7 1 3 5 6 7 8 6 5 5 6 5 5 5 4 4 2 2 1 1 2 2 3 2 2 3 3 4 4 4 4 3 3 3 4 4 5 4 6 7 7 8 8 7 7 6 6 5 5 5 5 6 7 8 7 7 6 6 5 4 3 4 5 7 8 9 9 8 8 7 7 7 7 6 6 6 6 7 7 5 6 7 8
1 2 2 1 1 2 2 2 3 4 3 4 7 8 5 2 1 3 7 9 8 9 8 5 4 6 6 6 6 5 3 3 1 1 1 1 1 2 1 1 2 3 2 2 2 2 2 2 2 2 2 3 4 5 5 5 5 5 4 4 4 4 6 5 6 5 6 5 5 5 5 4 4 6 5 5 4 4 5 5 7 8 7 8 8 8 7 6 7 7 6 5 6 6 7 8 7
3 4 4 5 1 4 5 9 1 1 5 5 8 12 2 0 1 1 6 6 9 6 9 7 8 8 6 6 6 5 4 3 1 0 1 1 3 3 3 3 2 1 2 1 2 1 1 1 2 2 2 2 1 3 3 4 4 3 3 3 3 2 2 3 4 4 4 5 5 6 5 4 5 5 4 5 6 6 6 5 4 5 5 5 6 7 7 7 7 8 8 6 6 6 7 8 6
Wind_Direction
326 321 308 297 269 262 43 6 56 308 61 262 294 36 242 346 170 49 47 359 39 262 192 316 358 18 137 194 187 193 214 143 211 120 216 233 307 189 174 188 138 145 152 159 163 167 170 168 170 166 169 168 169 170 168 166 162 161 159 162 161 161 162 162 160 158 156 154 151 149 146 146 147 142 143 139 135 131 124 115 109 115 118 113 108 112 102 96 91 89 87 84 82 81 77 73 68
307 324 312 308 280 60 300 106 104 359 33 13 280 90 252 314 47 101 98 111 194 208 228 163 306 317 331 207 187 307 297 210 174 190 214 272 27 147 201 184 145 152 152 158 163 167 169 171 170 167 168 169 169 170 168 168 166 163 161 162 164 165 165 164 165 161 160 157 157 155 154 151 150 148 146 143 135 133 127 120 118 120 121 116 113 108 106 104 94 90 85 82 83 82 80 78 73
321 352 336 358 31 84 286 47 39 94 74 31 284 224 327 44 101 137 150 156 187 195 186 350 96 39 316 36 9 133 256 299 83 38 94 312 109 229 212 176 149 146 150 158 161 168 170 174 170 168 167 173 168 171 170 168 167 167 164 164 168 168 167 169 167 166 166 165 165 162 159 158 156 155 149 143 138 135 129 125 122 120 116 115 116 116 109 98 92 89 86 80 81 80 79 77 74
313 265 23 32 347 22 50 24 102 131 31 208 331 307 45 135 58 155 181 181 180 125 69 139 76 239 129 358 209 137 256 20 195 149 124 225 204 198 190 171 150 139 144 157 165 167 173 178 172 170 167 172 171 171 170 169 169 169 166 170 171 172 171 171 172 172 171 171 170 167 164 162 158 152 147 144 139 133 131 125 123 118 120 121 117 108 104 95 92 89 84 81 76 77 74 72 71
333 300 131 69 96 356 84 212 144 96 332 209 133 283 39 100 111 79 258 205 170 117 128 165 64 304 194 230 208 150 226 241 6 117 146 220 191 159 172 172 143 138 153 160 164 168 174 178 177 173 169 174 174 172 170 170 171 172 171 172 175 178 175 176 176 176 175 175 174 172 167 165 158 152 152 147 137 136 132 128 121 119 122 115 112 108 96 91 86 84 85 79 76 75 71 68 66
306 348 38 105 114 174 43 28 339 321 228 156 108 239 205 177 87 39 360 99 179 139 169 92 171 283 346 233 184 128 185 67 179 117 146 218 163 161 168 165 141 144 156 161 167 165 174 179 179 176 174 176 176 173 171 171 174 174 174 175 178 181 179 181 180 180 177 178 176 175 170 166 160 155 156 147 137 135 134 129 124 125 123 124 118 109 97 89 85 86 84 82 77 73 72 68 66
324 23 359 22 349 61 160 133 247 213 275 169 175 182 127 131 134 65 340 61 341 56 21 179 73 38 21 287 337 256 343 257 99 194 169 170 150 161 163 164 139 149 157 162 165 167 171 177 181 179 176 178 178 175 174 174 176 176 176 178 180 183 182 184 184 184 181 180 179 176 171 168 160 161 156 146 142 141 138 132 132 128 128 122 120 121 113 106 102 93 93 88 69 69 73 69 63
110 94 307 87 287 49 342 205 258 159 279 166 189 116 184 121 112 74 303 58 295 123 270 318 82 115 247 351 241 274 353 17 115 98 134 126 145 160 166 160 145 160 153 161 167 162 169 175 182 181 178 180 178 176 176 178 179 177 179 181 182 184 185 187 186 186 184 182 182 178 173 169 162 164 154 151 147 135 137 140 127 120 114 111 93 94 127 125 123 113 93 87 79 69 74 68 65
349 92 340 69 9 10 15 293 263 246 259 311 338 107 99 129 107 119 333 249 341 80 107 192 148 65 263 357 225 271 323 31 83 114 132 135 146 165 168 172 154 173 152 161 167 158 168 177 180 182 180 182 179 178 181 181 184 181 181 184 184 183 187 189 189 186 186 185 183 182 176 168 169 165 158 161 158 151 139 139 137 133 125 121 116 117 95 152 135 125 96 84 87 78 72 74 72
1 92 325 118 126 334 340 305 30 270 287 273 68 114 117 163 40 88 155 343 224 84 243 202 152 172 273 310 304 300 211 166 106 93 157 153 156 157 168 188 162 164 170 150 163 161 168 177 178 182 182 184 181 178 182 185 189 187 186 187 185 184 189 190 191 189 187 186 187 184 178 173 173 168 161 155 143 147 144 145 149 145 144 138 135 123 136 97 200 154 144 116 97 85 79 78 81
359 0 146 61 28 9 323 281 262 313 316 302 42 333 93 85 79 11 343 265 300 302 251 182 17 253 36 272 216 276 92 133 132 181 203 165 156 160 169 199 163 164 167 145 158 161 166 177 178 180 181 185 184 180 182 185 189 188 189 188 189 186 191 190 191 190 183 188 184 184 178 176 177 175 161 153 150 152 154 151 148 157 163 166 156 162 135 200 191 130 123 117 105 89 85 83 77
17 3 8 94 278 177 246 289 303 294 327 8 25 320 316 103 73 28 3 36 323 350 243 96 285 156 265 299 293 291 123 157 213 212 213 167 157 171 175 191 148 173 155 146 143 157 164 171 180 181 179 183 184 183 182 185 188 188 189 193 193 188 193 194 193 191 181 186 179 183 179 182 179 164 165 156 157 159 161 161 164 172 178 173 191 180 172 182 157 149 120 118 111 109 107 93 84
99 105 65 81 238 330 273 338 270 318 351 343 196 278 344 69 142 168 78 9 344 17 11 225 270 66 293 216 257 291 177 244 163 167 176 153 174 167 177 152 144 161 144 144 142 155 161 167 177 183 183 181 183 183 184 184 188 189 189 194 198 191 191 195 194 190 184 183 177 185 176 181 182 174 173 163 163 165 166 171 171 180 188 191 180 176 175 173 162 145 119 125 125 128 120 106 89
101 303 111 291 354 296 279 259 308 7 312 257 257 293 313 126 245 149 92 348 297 97 224 217 129 138 260 339 312 277 242 213 154 168 167 162 163 119 169 154 144 144 145 147 153 155 160 169 175 179 182 183 183 183 185 186 187 188 189 192 195 193 190 193 193 185 178 179 175 183 179 179 179 176 173 164 169 168 170 158 155 162 170 174 169 176 176 163 150 122 131 136 138 138 126 110 95
24 133 83 137 311 32 259 127 224 171 308 220 242 151 338 279 128 55 138 188 282 206 251 311 189 95 258 153 283 235 214 189 167 143 114 139 144 119 143 165 165 122 161 148 153 156 167 167 174 179 184 185 185 183 184 189 188 190 187 189 190 191 188 190 185 182 173 177 175 183 181 178 177 173 169 171 168 166 137 143 153 161 167 176 178 176 169 156 154 130 141 146 144 139 132 116 104
148 78 85 46 280 75 278 206 19 69 285 205 292 163 56 321 146 113 260 172 248 294 50 270 348 202 231 219 230 228 196 158 157 112 106 107 108 103 81 165 182 143 183 168 155 167 166 171 174 181 185 189 188 187 188 187 192 190 189 186 187 188 186 183 180 180 174 176 181 182 180 177 171 168 172 174 167 155 145 137 136 138 167 181 178 172 166 161 163 143 152 154 149 145 130 114 109
53 81 32 37 298 133 261 121 45 312 262 287 287 257 84 306 310 39 226 29 296 272 265 220 208 262 245 238 241 176 142 126 111 102 101 103 111 144 64 70 191 216 209 207 179 171 174 176 180 180 188 189 189 188 191 191 192 190 188 186 185 184 182 178 178 177 177 179 183 183 167 166 172 161 172 164 159 152 149 144 139 137 141 170 161 169 172 163 167 156 167 160 150 134 111 100 98
59 84 120 280 208 258 233 230 273 220 270 280 321 196 105 23 342 273 6 304 264 285 284 266 280 261 246 257 19 129 138 136 144 137 155 159 145 169 199 222 193 208 205 215 216 192 176 186 185 185 185 190 188 188 192 193 190 190 187 185 185 183 181 176 175 176 180 178 177 170 166 159 161 162 162 156 158 157 154 151 147 146 137 118 147 168 174 172 165 166 172 166 147 124 111 90 60
115 171 112 220 197 235 186 265 313 15 307 269 302 44 62 290 42 268 305 280 285 300 283 278 281 276 286 284 81 125 141 152 161 170 167 176 184 189 198 199 210 223 233 226 227 209 196 181 183 186 188 186 188 190 191 187 184 186 189 184 184 181 179 177 174 175 177 175 171 170 166 163 162 163 162 164 162 163 162 159 154 151 146 132 142 166 171 172 167 172 174 167 141 128 116 139 161
239 133 233 244 216 255 301 303 298 332 241 344 2 316 10 281 312 264 240 271 310 259 275 305 274 264 262 285 111 155 169 178 185 185 190 196 194 196 193 201 209 214 216 208 208 209 202 193 189 187 184 184 186 191 188 183 181 181 188 186 181 181 179 180 177 176 177 174 173 170 169 166 164 163 169 162 153 154 163 162 159 154 147 139 149 154 160 167 168 174 178 166 132 125 144 182 142
268 104 195 232 232 269 270 301 307 314 27 328 319 303 333 298 260 340 273 306 267 257 234 231 270 275 256 264 276 160 185 187 207 217 219 216 213 208 201 197 198 206 209 205 206 210 206 203 194 189 184 184 187 189 187 186 179 178 187 186 183 180 182 183 182 180 180 176 174 173 172 165 166 164 161 159 158 154 154 158 154 150 144 147 145 146 142 149 142 144 132 120 144 150 156 187 131
125 206 204 210 293 294 269 287 304 316 326 350 326 339 280 306 319 264 241 252 268 245 245 228 243 265 261 263 277 185 189 206 209 215 223 218 211 214 219 225 227 216 190 186 207 206 207 204 200 194 184 187 188 187 190 183 174 184 186 185 182 185 185 186 185 183 182 181 177 176 170 169 169 168 166 165 163 161 159 160 160 151 148 155 146 146 142 134 129 126 133 143 173 177 175 191 185
245 282 241 219 225 239 286 297 289 315 301 299 304 252 325 331 285 250 239 246 262 244 250 247 252 255 264 268 270 280 259 219 215 220 223 227 227 227 219 216 201 207 193 208 199 204 202 203 202 194 191 187 191 187 186 177 185 185 184 183 183 189 185 184 189 188 187 179 179 177 173 178 173 170 172 170 168 165 165 164 162 161 159 159 160 149 152 145 140 143 147 161 182 208 197 189 187
212 245 262 258 232 244 270 292 331 320 269 276 259 335 293 300 295 231 243 256 260 267 256 259 262 272 274 278 251 246 257 258 244 221 219 217 214 217 213 211 215 199 181 204 202 198 194 203 200 193 199 189 193 188 186 187 184 179 183 181 188 186 183 189 190 193 182 181 182 182 180 176 172 170 174 172 171 164 168 167 162 163 160 165 164 157 152 151 149 150 155 169 190 211 194 170 143
230 270 243 269 334 287 322 297 298 294 285 263 310 297 265 223 250 322 277 276 276 272 261 262 270 275 284 280 271 254 254 266 266 254 247 241 225 227 225 226 218 179 199 207 202 194 202 199 192 195 198 200 193 189 191 191 185 179 178 183 190 184 188 191 191 186 186 183 185 183 180 181 178 172 174 176 156 171 164 166 166 167 163 167 161 171 160 160 159 160 166 181 191 195 190 162 140
264 276 6 316 310 299 293 310 298 289 288 268 291 273 272 247 284 272 262 272 269 279 290 271 275 285 275 262 261 261 252 250 265 280 251 238 230 212 234 218 197 188 210 203 189 205 199 194 192 196 196 197 194 189 198 190 192 187 185 186 187 182 190 187 185 188 191 181 186 186 188 182 181 175 174 168 166 168 167 167 168 170 170 169 169 174 177 162 164 165 170 181 182 186 179 177 149
323 357 335 313 280 310 306 308 292 276 266 264 241 272 275 254 158 282 247 249 273 306 292 288 277 271 273 264 259 263 256 253 245 257 305 277 233 206 227 199 191 211 198 199 201 200 194 184 197 198 197 193 187 194 196 197 189 199 191 185 183 188 183 176 184 186 187 190 188 184 185 184 176 172 171 171 173 163 167 169 177 168 170 181 178 172 170 172 165 173 177 179 180 178 180 171 157
40 342 337 327 324 313 293 287 275 289 285 236 209 250 266 270 182 244 270 276 279 304 296 293 285 267 272 275 272 281 295 275 286 315 272 284 260 221 224 204 211 214 190 212 204 189 172 192 195 195 194 188 186 198 192 196 193 200 194 181 186 187 177 181 182 183 189 191 187 184 183 181 174 171 166 169 171 166 168 173 171 175 186 178 184 174 170 173 170 172 171 173 171 165 168 169 164
292 1 321 300 327 314 284 263 267 221 257 192 175 224 306 274 219 238 251 270 299 295 289 290 285 276 273 291 315 319 295 336 11 27 16 13 14 15 5 0 345 319 310 301 209 163 190 195 188 195 190 182 188 192 192 199 186 184 189 196 180 171 181 179 179 184 186 186 183 183 182 178 175 164 169 167 168 168 166 170 177 187 182 176 184 178 164 163 160 160 170 160 156 155 156 175 160
349 355 238 311 338 310 276 271 251 269 253 145 136 266 251 257 246 257 266 278 294 295 283 274 276 286 302 327 320 328 28 39 35 25 21 20 23 17 23 6 10 9 332 294 146 194 204 180 190 177 179 179 190 187 176 180 186 174 174 183 174 169 177 179 181 177 176 179 178 180 176 173 172 163 159 165 164 167 170 174 178 187 183 179 176 167 171 168 167 162 169 159 169 165 174 176 162
279 279 98 234 322 270 278 231 294 326 233 181 148 204 269 259 277 271 273 278 264 279 286 287 290 311 327 322 319 41 46 45 41 29 24 23 20 23 23 14 14 11 7 1 328 322 17 115 145 164 172 173 169 175 172 179 175 160 153 164 173 174 174 179 174 163 164 170 168 171 167 166 168 160 162 160 171 169 171 176 182 186 172 170 171 178 166 168 160 171 161 168 169 173 177 175 170
265 14 297 314 186 273 291 301 283 250 286 14 128 266 232 245 260 273 274 281 288 293 285 285 318 344 323 350 39 63 52 40 38 34 25 22 22 24 22 18 14 17 14 0 358 32 63 67 80 111 123 139 170 167 162 159 158 149 139 148 160 159 153 166 166 161 154 146 150 159 163 160 159 158 160 161 166 175 175 180 185 167 169 162 169 167 163 170 172 167 180 162 166 189 172 182 166
308 181 252 262 208 252 338 282 4 187 113 334 181 240 309 304 262 265 272 289 301 288 282 297 4 322 14 57 59 50 43 35 34 30 25 22 27 27 26 22 18 15 16 14 10 13 32 22 36 73 102 129 143 121 112 122 127 128 131 129 134 132 137 140 142 128 120 123 133 145 154 157 160 154 160 166 163 172 174 178 176 171 162 164 165 173 175 171 164 169 179 186 172 174 181 172 169
294 231 218 214 241 283 264 304 330 88 117 240 274 249 234 249 283 284 289 287 290 287 287 323 358 26 72 70 64 56 51 43 34 22 21 24 26 30 31 30 23 18 20 19 19 27 27 29 35 37 36 38 61 83 85 92 94 92 90 89 88 92 101 112 113 111 110 123 123 137 149 152 155 149 153 159 162 169 171 175 172 168 162 161 165 170 184 165 168 165 179 195 181 161 181 175 178
229 265 277 292 260 224 247 303 262 304 238 245 287 246 266 269 277 284 276 278 278 272 290 329 18 78 76 76 68 61 56 52 35 25 23 25 26 28 31 27 26 25 22 20 25 25 27 20 22 26 28 30 39 59 63 67 75 75 72 77 75 73 64 62 80 76 95 102 112 136 142 145 152 149 145 152 157 162 167 171 173 171 164 165 165 172 172 172 173 182 178 190 197 194 180 186 173
229 230 239 242 250 265 266 251 275 254 284 300 275 274 279 286 281 271 273 258 244 277 300 353 81 88 84 78 70 62 59 56 40 32 29 30 32 32 29 25 29 29 27 25 27 29 28 26 24 21 15 23 39 36 38 44 47 49 60 56 63 55 65 68 48 89 90 87 106 124 139 148 153 152 146 153 162 167 170 176 178 171 170 163 169 174 184 181 187 187 197 181 186 207 212 172 146
241 256 265 258 262 282 280 271 268 305 312 249 260 272 303 288 282 288 281 302 309 296 308 73 89 77 71 73 72 71 62 53 31 41 34 31 32 28 28 27 23 31 28 26 32 29 30 29 31 24 14 19 24 31 31 43 49 33 38 49 71 38 67 63 63 61 74 108 115 125 144 153 164 162 160 155 173 174 182 173 175 178 170 174 181 191 187 191 191 186 182 184 175 180 209 181 168
230 246 257 276 254 278 254 287 285 313 311 286 310 360 313 298 294 282 284 331 321 342 76 93 87 79 75 69 67 62 71 61 40 38 31 31 27 25 25 27 24 31 20 27 33 33 32 30 32 25 19 22 22 21 32 38 29 82 97 52 83 56 46 63 59 34 73 67 87 114 133 151 162 176 177 169 170 176 179 178 182 184 176 189 195 190 187 188 182 181 162 187 206 182 195 180 180
276 260 264 308 269 257 284 275 334 330 10 272 307 318 292 289 284 283 322 43 44 50 84 76 84 78 69 66 63 62 57 48 43 43 37 31 26 25 26 26 28 28 25 28 26 35 33 32 26 28 26 27 19 16 29 41 39 38 61 49 88 80 68 93 86 36 38 65 43 54 105 122 146 183 186 178 178 190 190 184 196 184 187 181 178 191 188 194 192 188 181 188 199 229 190 186 186
274 297 300 270 264 349 306 295 346 337 92 283 299 306 292 287 279 12 36 92 73 65 70 74 74 79 74 63 58 64 59 47 46 38 34 28 28 27 27 27 25 27 27 26 24 27 30 29 26 25 25 28 26 23 29 17 73 69 49 56 51 76 85 48 57 40 47 50 40 40 52 85 120 178 205 203 210 206 201 202 193 182 193 186 187 188 192 202 194 195 195 203 172 192 206 212 209
284 194 224 256 291 252 205 266 310 283 318 115 7 342 316 254 272 90 34 57 80 64 73 72 64 75 86 84 66 53 58 53 53 45 37 33 32 29 25 23 23 33 29 26 22 22 26 25 23 25 25 24 23 25 30 34 25 27 24 22 26 15 8 19 21 7 13 49 76 85 105 109 123 159 196 225 229 234 228 227 191 201 196 199 193 196 197 202 197 199 195 192 191 196 214 214 222
294 236 208 224 207 207 277 315 24 15 331 341 49 352 311 273 272 217 153 54 61 46 77 69 73 70 68 66 62 53 53 50 56 52 46 41 43 36 31 27 29 29 31 24 20 22 23 24 23 22 23 21 19 20 27 44 54 55 45 39 28 20 17 6 360 312 304 295 219 280 349 109 122 115 192 214 229 227 243 237 206 181 211 207 205 211 208 203 210 205 202 197 205 217 202 192 222
60 269 169 165 155 124 103 358 42 349 143 274 72 227 272 328 306 279 126 89 78 63 59 72 67 61 57 64 62 51 46 43 42 49 44 46 38 43 39 34 26 30 23 17 29 26 24 26 27 29 26 21 15 19 23 31 44 53 66 73 73 63 49 3 333 344 304 288 344 340 281 332 61 152 320 304 259 245 246 254 225 195 200 208 217 219 222 216 214 211 204 206 213 211 185 208 213
250 242 129 110 81 8 322 70 136 239 264 307 329 177 252 257 267 251 104 104 114 80 75 58 67 64 64 63 55 52 42 38 39 39 39 39 40 42 42 31 31 28 17 27 35 35 31 26 29 30 30 27 20 15 24 27 42 41 46 51 57 51 51 25 6 3 17 351 9 317 305 296 311 188 182 322 328 288 271 275 253 228 202 211 197 214 222 224 222 229 216 218 217 212 206 214 216
217 222 127 98 94 187 139 178 215 229 19 289 287 204 288 244 251 305 133 115 223 118 107 96 86 82 74 65 52 49 46 41 35 38 37 32 30 29 30 33 25 31 27 27 30 34 37 35 35 36 37 31 22 19 18 21 33 40 46 43 43 30 33 25 10 30 23 13 25 351 0 321 307 324 342 279 330 292 272 260 278 279 256 238 193 217 231 229 223 222 220 220 218 225 213 222 217
259 183 66 48 75 136 166 145 121 328 81 271 247 183 212 280 265 343 251 137 196 179 147 124 111 92 81 73 59 47 42 41 31 33 37 35 26 22 18 25 31 25 25 30 31 32 33 35 35 38 36 34 29 25 19 22 25 29 37 36 39 25 21 18 32 24 19 15 23 13 3 355 330 313 300 314 308 303 270 254 256 255 255 256 221 218 231 240 238 230 226 223 222 226 220 216 222
116 81 61 359 18 342 45 92 112 57 298 249 230 211 177 287 274 211 143 219 170 132 121 122 103 79 65 58 58 44 39 47 37 26 30 36 24 30 22 38 28 25 23 26 27 28 28 30 30 38 33 33 32 32 26 24 25 29 34 32 33 27 19 24 23 18 14 17 14 3 4 359 18 348 336 322 317 306 282 267 251 259 263 266 262 249 232 230 238 230 232 230 229 229 228 227 231
119 67 106 25 333 16 39 347 46 111 268 259 234 199 186 186 284 279 266 321 158 161 165 154 126 94 71 64 60 48 42 48 35 32 28 22 30 30 35 37 32 27 28 26 24 23 28 28 28 35 29 27 30 30 31 27 27 30 35 35 34 30 29 27 24 18 10 13 8 5 354 5 2 6 13 358 337 325 306 279 268 281 283 282 276 259 259 244 245 242 243 232 234 233 237 236 235
82 83 49 93 267 35 322 37 310 200 210 244 289 114 80 241 224 237 49 8 15 44 117 133 121 108 92 74 67 48 49 56 40 27 30 31 33 29 30 30 32 30 27 23 23 22 23 28 28 36 29 22 25 27 30 25 30 30 31 33 35 33 32 29 23 21 10 13 9 11 10 6 359 6 357 1 354 343 323 299 285 265 271 261 262 284 275 270 261 257 251 249 239 234 230 228 230
121 146 140 103 143 185 238 253 213 296 293 244 176 24 217 248 282 16 63 39 49 87 92 101 109 113 112 101 86 69 48 52 45 38 37 39 34 31 33 32 31 29 26 24 24 26 21 27 25 33 29 24 23 28 27 28 28 28 29 34 34 34 34 31 30 25 16 18 14 14 14 7 4 3 354 359 344 347 354 325 291 279 266 277 277 276 280 280 273 263 260 259 255 246 237 235 235
201 133 150 182 152 152 240 206 219 232 224 280 268 50 234 135 244 58 84 80 78 84 91 92 93 99 105 99 80 65 56 44 38 35 40 38 31 34 39 37 36 32 28 26 26 23 23 26 24 26 27 21 25 27 28 32 28 25 26 28 32 32 31 33 31 27 24 22 17 19 16 10 8 355 356 344 352 358 355 355 347 318 306 299 299 298 290 292 287 283 272 262 268 263 254 244 246
220 165 82 79 241 146 186 208 189 258 305 305 273 205 197 159 90 83 63 74 70 78 87 92 88 86 85 73 71 64 52 52 36 43 32 32 36 34 38 39 37 34 29 32 31 26 30 24 23 26 28 18 22 25 28 29 28 27 30 32 30 30 29 29 28 24 24 25 21 21 14 13 6 357 354 352 350 356 355 355 353 350 338 328 320 308 303 298 293 289 283 281 274 271 267 262 254
250 94 214 208 183 110 287 338 253 93 358 252 174 298 345 107 73 53 83 78 75 77 81 86 91 93 91 96 92 81 82 66 55 70 62 44 35 33 36 36 31 27 28 24 22 23 29 27 29 29 25 26 26 23 24 27 25 36 33 36 33 33 33 32 26 17 15 16 26 21 19 9 7 7 355 352 349 352 353 355 353 349 348 342 333 324 312 302 295 288 279 277 275 274 267 266 265
84 151 239 232 107 118 136 220 316 218 217 262 159 217 280 133 282 136 84 94 102 96 107 107 114 110 106 135 158 175 165 174 116 85 82 74 62 39 27 25 25 23 13 9 7 7 12 17 18 17 16 17 8 12 17 21 25 34 33 34 32 36 33 26 23 14 6 18 21 20 14 14 9 358 356 347 348 350 350 353 351 346 342 341 337 327 323 312 312 300 285 278 268 277 280 278 266
168 187 243 128 281 320 307 89 272 274 254 276 286 256 257 211 233 141 204 157 157 144 135 130 128 147 162 175 192 224 256 73 67 68 51 46 38 29 20 12 355 2 360 357 350 358 3 6 5 16 8 1 358 360 3 5 25 24 29 26 28 25 28 31 21 10 13 23 23 23 23 13 3 357 354 352 349 349 352 346 349 344 342 341 338 333 328 323 317 310 300 291 286 279 273 273 271
32 48 15 208 107 173 207 203 186 168 269 263 284 257 259 182 197 165 207 180 166 145 149 168 177 177 191 191 203 195 196 171 140 79 57 36 33 18 21 358 350 342 343 338 329 336 350 344 358 351 350 352 357 359 356 359 355 5 2 14 17 25 23 21 9 12 13 13 9 11 7 10 0 339 337 337 341 343 345 344 342 343 339 340 342 335 335 326 320 305 296 295 285 286 279 271 273
352 46 299 344 256 221 130 300 183 181 204 216 269 268 269 257 219 211 207 169 160 155 163 178 192 205 205 201 190 189 185 192 168 125 71 20 339 353 326 321 316 324 311 303 305 293 289 321 329 333 344 329 345 340 350 339 346 339 351 344 344 359 1 357 360 6 12 5 3 1 356 345 334 346 336 335 334 333 326 328 330 332 334 334 339 337 336 335 328 315 303 283 282 276 269 269 267
145 161 209 174 94 290 265 262 117 143 226 240 233 256 280 230 314 184 119 126 147 173 160 179 204 206 208 207 210 196 183 178 168 226 166 239 263 252 264 284 282 307 307 330 333 3 354 316 277 290 325 317 297 316 320 324 322 318 327 303 306 315 312 346 335 350 350 347 346 340 333 338 339 317 333 328 331 332 331 319 312 305 309 319 324 330 330 334 326 321 312 306 295 283 274 270 264